Tracking 25370 objects as of 25-Jan-2022
HD Live streaming from Space Station
objects crossing your sky now

STARLINK-2098

Track STARLINK-2098 now!
10-day predictions
STARLINK-2098 is classified as:


NORAD ID: 47378
Int'l Code: 2021-005AF
Perigee: 553.1 km
Apogee: 555.6 km
Inclination: 53.1 °
Period: 95.6 minutes
Semi major axis: 6925 km
RCS: Unknown
Launch date: January 20, 2021
Source: United States (US)
Launch site: AIR FORCE EASTERN TEST RANGE (AFETR)
aabbcc
Your satellite tracking list
Your tracking list is empty




NASA's NSSDC Master Catalog

Two Line Element Set (TLE):
1 47378U 21005AF  22024.88568428  .00003514  00000-0  25464-3 0  9993
2 47378  53.0535 296.9538 0001788  72.4227 287.6957 15.06412268 56798
Source of the keplerian elements: AFSPC